| time (UTC) | temp F | wind direction | speed MPH | gust MPH | rain 1hr in | rain 24hr in | rain mn in | humidity % | barometer mb |
| 20260905004502 | 61 | 254 | 2.0 | 9.0 | 0.00 | 0.27 | 0.00 | 84 | 1010.2 |
| 20260905003004 | 61 | 236 | 3.0 | 9.0 | 0.00 | 0.27 | 0.00 | 85 | 1010.1 |
| 20260905001608 | 61 | 230 | 3.0 | 10.0 | 0.00 | 0.27 | 0.00 | 85 | 1010.1 |
| 20260904234605 | 61 | 240 | 2.0 | 10.0 | 0.00 | 0.27 | 0.00 | 86 | 1009.8 |
| 20260904233056 | 61 | 213 | 2.0 | 10.0 | 0.00 | 0.27 | 0.00 | 86 | 1009.8 |
| 20260904231553 | 61 | 209 | 1.0 | 14.0 | 0.00 | 0.27 | 0.00 | 86 | 1009.5 |
| 20260904230051 | 62 | 252 | 4.0 | 14.0 | 0.00 | 0.27 | 0.00 | 87 | 1009.4 |
| 20260904224549 | 62 | 286 | 4.0 | 13.0 | 0.00 | 0.27 | 0.00 | 88 | 1009.5 |
| 20260904223051 | 62 | 186 | 5.0 | 14.0 | 0.00 | 0.27 | 0.00 | 88 | 1009.3 |
| 20260904221551 | 62 | 249 | 2.0 | 16.0 | 0.00 | 0.27 | 0.00 | 89 | 1009.3 |
| 20260904220056 | 62 | 235 | 4.0 | 13.0 | 0.00 | 0.27 | 0.00 | 90 | 1008.7 |
| 20260904214542 | 62 | 261 | 2.0 | 12.0 | 0.00 | 0.27 | 0.27 | 91 | 1008.4 |
| 20260904213039 | 62 | 248 | 2.0 | 11.0 | 0.00 | 0.27 | 0.27 | 91 | 1008.1 |
| 20260904211550 | 62 | 327 | 3.0 | 11.0 | 0.00 | 0.27 | 0.27 | 92 | 1008.0 |
| 20260904210045 | 62 | 300 | 3.0 | 7.0 | 0.00 | 0.27 | 0.27 | 92 | 1007.7 |
| 20260904204537 | 62 | 232 | 2.0 | 10.0 | 0.00 | 0.27 | 0.27 | 93 | 1007.7 |
| 20260904203037 | 62 | 202 | 2.0 | 10.0 | 0.00 | 0.27 | 0.27 | 93 | 1007.7 |
| 20260904201539 | 62 | 277 | 2.0 | 10.0 | 0.00 | 0.27 | 0.27 | 93 | 1007.5 |
| 20260904200040 | 62 | 252 | 4.0 | 11.0 | 0.00 | 0.27 | 0.27 | 93 | 1007.3 |
| 20260904194620 | 61 | 232 | 3.0 | 12.0 | 0.00 | 0.27 | 0.27 | 93 | 1007.2 |
| 20260904193040 | 61 | 198 | 1.0 | 10.0 | 0.01 | 0.27 | 0.27 | 93 | 1006.8 |
| 20260904191535 | 61 | 286 | 2.0 | 9.0 | 0.02 | 0.27 | 0.27 | 93 | 1006.7 |
| 20260904190034 | 61 | 193 | 4.0 | 12.0 | 0.05 | 0.27 | 0.27 | 93 | 1006.7 |
| 20260904184533 | 61 | 229 | 3.0 | 12.0 | 0.09 | 0.27 | 0.27 | 92 | 1006.7 |
| 20260904183032 | 60 | 215 | 3.0 | 14.0 | 0.16 | 0.26 | 0.26 | 92 | 1006.6 |
| 20260904181530 | 60 | 286 | 3.0 | 11.0 | 0.18 | 0.25 | 0.25 | 91 | 1006.6 |
| 20260904180028 | 61 | 277 | 2.0 | 12.0 | 0.15 | 0.22 | 0.22 | 90 | 1006.4 |
| 20260904174526 | 61 | 313 | 3.0 | 10.0 | 0.11 | 0.18 | 0.18 | 87 | 1006.7 |
| 20260904173030 | 64 | 235 | 6.0 | 17.0 | 0.03 | 0.10 | 0.10 | 81 | 1006.7 |
| 20260904171526 | 66 | 293 | 6.0 | 18.0 | 0.00 | 0.07 | 0.07 | 76 | 1006.8 |
| 20260904170019 | 66 | 272 | 5.0 | 14.0 | 0.00 | 0.07 | 0.07 | 77 | 1006.3 |
| 20260904164519 | 66 | 302 | 4.0 | 14.0 | 0.00 | 0.07 | 0.07 | 79 | 1005.7 |
| 20260904163018 | 66 | 261 | 7.0 | 19.0 | 0.00 | 0.07 | 0.07 | 77 | 1006.0 |
| 20260904161518 | 66 | 324 | 6.0 | 23.0 | 0.00 | 0.07 | 0.07 | 76 | 1006.1 |
| 20260904160018 | 66 | 259 | 7.0 | 18.0 | 0.07 | 0.07 | 0.07 | 77 | 1006.0 |
| 20260904154516 | 66 | 312 | 8.0 | 19.0 | 0.07 | 0.07 | 0.07 | 80 | 1005.5 |
| 20260904153022 | 65 | 290 | 9.0 | 25.0 | 0.07 | 0.07 | 0.07 | 84 | 1005.5 |
| 20260904151527 | 65 | 315 | 16.0 | 36.0 | 0.07 | 0.07 | 0.07 | 84 | 1005.4 |
| 20260904150013 | 78 | 287 | 16.0 | 34.0 | 0.00 | 0.00 | 0.00 | 61 | 1003.8 |
| 20260904144511 | 80 | 281 | 6.0 | 26.0 | 0.00 | 0.00 | 0.00 | 60 | 1002.7 |
| 20260904143008 | 79 | 205 | 10.0 | 27.0 | 0.00 | 0.00 | 0.00 | 61 | 1002.9 |
| 20260904141506 | 79 | 348 | 8.0 | 25.0 | 0.00 | 0.00 | 0.00 | 62 | 1003.2 |
| 20260904140001 | 78 | 236 | 11.0 | 27.0 | 0.00 | 0.00 | 0.00 | 63 | 1003.3 |
| 20260904134616 | 78 | 207 | 8.0 | 17.0 | 0.00 | 0.00 | 0.00 | 64 | 1003.5 |
| 20260904133111 | 77 | 254 | 8.0 | 30.0 | 0.00 | 0.00 | 0.00 | 65 | 1003.8 |
| 20260904131610 | 77 | 243 | 8.0 | 23.0 | 0.00 | 0.00 | 0.00 | 65 | 1004.1 |
| 20260904130053 | 77 | 194 | 3.0 | 32.0 | 0.00 | 0.00 | 0.00 | 65 | 1004.1 |
| 20260904124551 | 77 | 243 | 7.0 | 20.0 | 0.00 | 0.00 | 0.00 | 66 | 1004.3 |
| 20260904123050 | 77 | 230 | 8.0 | 20.0 | 0.00 | 0.00 | 0.00 | 66 | 1004.6 |
| 20260904121549 | 77 | 242 | 9.0 | 26.0 | 0.00 | 0.00 | 0.00 | 65 | 1004.8 |
| 20260904120047 | 77 | 252 | 6.0 | 23.0 | 0.00 | 0.00 | 0.00 | 65 | 1004.9 |
| 20260904114544 | 76 | 215 | 10.0 | 28.0 | 0.00 | 0.00 | 0.00 | 64 | 1005.1 |
| 20260904113043 | 76 | 205 | 9.0 | 26.0 | 0.00 | 0.00 | 0.00 | 64 | 1005.2 |
| 20260904111540 | 76 | 229 | 9.0 | 20.0 | 0.00 | 0.00 | 0.00 | 66 | 1005.7 |
| 20260904110036 | 75 | 291 | 11.0 | 23.0 | 0.00 | 0.00 | 0.00 | 66 | 1006.1 |
| 20260904104535 | 75 | 236 | 12.0 | 24.0 | 0.00 | 0.00 | 0.00 | 66 | 1006.2 |
| 20260904103033 | 75 | 301 | 7.0 | 20.0 | 0.00 | 0.00 | 0.00 | 67 | 1006.5 |
| 20260904101530 | 74 | 244 | 5.0 | 25.0 | 0.00 | 0.00 | 0.00 | 68 | 1006.8 |
| 20260904100030 | 74 | 232 | 8.0 | 21.0 | 0.00 | 0.00 | 0.00 | 70 | 1006.8 |
| 20260904094524 | 73 | 248 | 5.0 | 21.0 | 0.00 | 0.00 | 0.00 | 70 | 1007.1 |
| 20260904093024 | 73 | 205 | 11.0 | 25.0 | 0.00 | 0.00 | 0.00 | 71 | 1007.1 |
| 20260904091521 | 73 | 215 | 7.0 | 22.0 | 0.00 | 0.00 | 0.00 | 75 | 1007.2 |
| 20260904090018 | 73 | 200 | 6.0 | 18.0 | 0.00 | 0.00 | 0.00 | 73 | 1007.6 |
| 20260904084515 | 72 | 240 | 10.0 | 18.0 | 0.00 | 0.00 | 0.00 | 75 | 1008.0 |
| 20260904083015 | 71 | 198 | 8.0 | 20.0 | 0.00 | 0.00 | 0.00 | 78 | 1008.2 |
| 20260904081514 | 70 | 238 | 6.0 | 19.0 | 0.00 | 0.00 | 0.00 | 79 | 1008.3 |
| 20260904080007 | 70 | 261 | 8.0 | 21.0 | 0.00 | 0.00 | 0.00 | 79 | 1008.2 |
| 20260904074504 | 70 | 242 | 6.0 | 17.0 | 0.00 | 0.00 | 0.00 | 79 | 1008.5 |
| 20260904073001 | 69 | 231 | 7.0 | 15.0 | 0.00 | 0.00 | 0.00 | 81 | 1008.9 |
| 20260904071600 | 68 | 229 | 8.0 | 14.0 | 0.00 | 0.00 | 0.00 | 82 | 1009.0 |
| 20260904070059 | 68 | 231 | 9.0 | 17.0 | 0.00 | 0.00 | 0.00 | 83 | 1009.2 |
| 20260904064615 | 67 | 184 | 7.0 | 13.0 | 0.00 | 0.00 | 0.00 | 84 | 1009.4 |
| 20260904063053 | 66 | 205 | 7.0 | 12.0 | 0.00 | 0.00 | 0.00 | 84 | 1009.3 |
| 20260904061552 | 66 | 237 | 5.0 | 16.0 | 0.00 | 0.00 | 0.00 | 84 | 1009.7 |
| 20260904060049 | 65 | 221 | 4.0 | 12.0 | 0.00 | 0.00 | 0.00 | 84 | 1009.8 |
| 20260904054546 | 65 | 214 | 5.0 | 10.0 | 0.00 | 0.00 | 0.00 | 85 | 1009.9 |
| 20260904053044 | 65 | 216 | 6.0 | 9.0 | 0.00 | 0.00 | 0.00 | 85 | 1010.2 |
| 20260904051542 | 65 | 200 | 5.0 | 10.0 | 0.00 | 0.00 | 0.00 | 85 | 1010.5 |
| 20260904050046 | 65 | 236 | 5.0 | 12.0 | 0.00 | 0.00 | 0.00 | 85 | 1010.4 |
| 20260904044550 | 65 | 258 | 4.0 | 11.0 | 0.00 | 0.00 | 0.00 | 85 | 1010.7 |
| 20260904043042 | 65 | 225 | 5.0 | 14.0 | 0.00 | 0.00 | 0.00 | 85 | 1010.6 |
| 20260904041539 | 65 | 238 | 4.0 | 11.0 | 0.00 | 0.00 | 0.00 | 85 | 1010.9 |
| 20260904040033 | 65 | 257 | 4.0 | 10.0 | 0.00 | 0.00 | 0.00 | 85 | 1011.1 |
| 20260904034531 | 65 | 202 | 3.0 | 9.0 | 0.00 | 0.00 | 0.00 | 85 | 1011.2 |
| 20260904033030 | 65 | 236 | 4.0 | 8.0 | 0.00 | 0.00 | 0.00 | 85 | 1011.3 |
| 20260904031528 | 65 | 196 | 4.0 | 9.0 | 0.00 | 0.00 | 0.00 | 85 | 1011.5 |
| 20260904030029 | 65 | 226 | 2.0 | 9.0 | 0.00 | 0.00 | 0.00 | 84 | 1011.6 |
| 20260904024525 | 65 | 225 | 3.0 | 8.0 | 0.00 | 0.00 | 0.00 | 84 | 1011.6 |
| 20260904023024 | 65 | 196 | 3.0 | 8.0 | 0.00 | 0.00 | 0.00 | 84 | 1011.8 |
| 20260904021522 | 65 | 220 | 1.0 | 4.0 | 0.00 | 0.00 | 0.00 | 83 | 1011.8 |
| 20260904020033 | 65 | 223 | 1.0 | 4.0 | 0.00 | 0.00 | 0.00 | 82 | 1012.0 |
| 20260904014521 | 66 | 227 | 1.0 | 4.0 | 0.00 | 0.00 | 0.00 | 82 | 1011.9 |
| 20260904013023 | 66 | 240 | 5.0 | 7.0 | 0.00 | 0.00 | 0.00 | 82 | 1012.1 |
| 20260904011519 | 66 | 234 | 3.0 | 9.0 | 0.00 | 0.00 | 0.00 | 81 | 1012.0 |
| 20260904010019 | 66 | 228 | 2.0 | 7.0 | 0.00 | 0.00 | 0.00 | 81 | 1012.1 |